CZ-6A DEB

Satellite information

Favourite Embed

Satellite Type and Status

DEBRISIN ORBIT

Key statistics

Satellite CZ-6A DEB at a glance.

Uptime

494

Days in orbit

Revolutions

≈ 14.4

Per day

Orbit

LEO

Low Earth Orbit

Inclination

89.0

Latest

Satellite identification and parameters

Extended collection of information and parameters for CZ-6A DEB.

Object identification

Identified? True

Debris? True

Object name: CZ-6A DEB

International designator: 2024-140FF

Object number (NORAD): 60780

Object ID (CCSDS): 60780

Country: PEOPLES REPUBLIC OF CHINA (PRC)

Current information (Y/N): Y

RCS size: SMALL

Orbital parameters

Period: 100.207 minutes

Inclination: 88.9664 deg

SMA: 7146.494 km

Apoapsis: 825.448 km

Periapsis: 711.27 km

RAAN: 292.242 deg

Eccentricy: 0.00798837

Argument of periapsis: 271.6501 deg

Mean anomaly: 87.5549 deg

Mean motion: 14.37021377 rev/day

Mean motion (dot): 0.00001055 rev/day2

B* drag term: 0.00033857803 1/REarth

Two-line elements (TLE)

Creation date: Dec. 12, 2025, 3:16 a.m.

Reference frame: TEME

Reference center: EARTH

Epoch: Dec. 11, 2025, 8:04 p.m. UTC

TLE line 0: 0 CZ-6A DEB

TLE line 1: 1 60780U 24140FF 25345.83650642 .00001055 00000-0 33858-3 0 9996

TLE line 2: 2 60780 88.9664 292.2420 0079884 271.6501 87.5549 14.37021377 69876

Live tracking on map

Real-time ground track for satellite CZ-6A DEB.

In-orbit conjunctions

A list of the most updated potential collisions computed for object CZ-6A DEB.

Target Orbit TCA Probability of collision Miss distance Type
COSMOS 1275 DEB LEO 2025-08-24 10:53:34 0.0001867301 271.0 (m) DEBRIS
FENGYUN 1C DEB SSO 2025-03-02 06:53:18 0.000247682 298.0 (m) DEBRIS
COSMOS 2251 DEB LEO 2025-01-18 17:19:23 0.0002074083 436.0 (m) DEBRIS
SL-16 DEB LEO 2024-11-21 00:26:36 0.0001277196 324.0 (m) DEBRIS
SL-16 DEB LEO 2024-11-13 12:36:21 0.0001990152 595.0 (m) DEBRIS

Associated space launch

18 Low Earth Orbit communication satellites with Ku, Q and V band payloads for the G60 constellation operated by Shanghai Spacecom Satellite Technology (SSST) with funding backed by the Shanghai local government. Initial constellation will consist of 1296 satellites by 2027 with long term plans to expand it to 12000 satellites.

CZ-6A DEB was lifted into orbit during the mission ‘Long March 6A | G60 Polar Group 01’, on board a Long March 6A space rocket.

The launch took place on Aug. 6, 2024, 6:42 a.m. from Launch Complex 9A.

For more information about the launch, click the button.

Launch to space Long March 6A | G60 Polar Group 01
Long March 6A | G60 Polar Group 01

Agency: N/A

Status: Launch Successful

Launch date: Aug. 6, 2024, 6:42 a.m. UTC

Rocket: Long March 6A

Launch pad: Launch Complex 9A

Location: Taiyuan Satellite Launch Center, People's Republic of China

...

Latest news about this satellite

News about space launch
Brightness of first Chinese broadband constellation satellites alarms astronomers

The first satellites of a Chinese broadband constellation are significantly brighter than those of Western systems, posing a new challenge for astronomers.

News about space launch
Chinese rocket stage breaks up into cloud of more than 700 pieces of space debris

HELSINKI — A Chinese Long March 6A rocket’s upper stage has fragmented into a cloud of over 700 pieces of space debris, adding to concerns about long-term orbital safety. China […]

News about space launch
China's Thousand Sails Megaconstellation Kicks Off with Dangerous Debris Field

China's Thousand Sails Megaconstellation Kicks Off with Dangerous Debris Field


Newsletter sign-up

Weekly statistics, charts and insights to help you stay on top of the space industry.